PD1VW-10 Weather Reports


Display with metric or nautical units.
time (UTC)temp
F
wind
direction
speed
MPH
gust
MPH
rain 1hr
in
rain 24hr
in
rain mn
in
humidity
%
barometer
mb
20260504231036 50 266 6.0 9.0 0.00 0.11 0.00 90 1015.7
20260504230033 50 266 7.0 8.0 0.00 0.11 0.00 90 1015.6
20260504225030 50 266 6.0 8.0 0.00 0.11 0.00 89 1015.7
20260504224028 50 266 7.0 9.0 0.00 0.11 0.00 89 1015.9
20260504223025 51 266 9.0 10.0 0.00 0.11 0.00 88 1015.8
20260504222042 51 266 6.0 8.0 0.00 0.11 0.00 88 1016.0
20260504221019 51 266 7.0 9.0 0.00 0.11 0.00 88 1015.9
20260504220017 51 266 5.0 7.0 0.00 0.11 0.11 88 1016.2
20260504215044 51 266 7.0 9.0 0.00 0.11 0.11 88 1016.2
20260504214042 51 266 7.0 11.0 0.00 0.11 0.11 88 1016.1
20260504213039 51 266 7.0 9.0 0.00 0.11 0.11 89 1016.0
20260504212036 51 266 6.0 7.0 0.00 0.11 0.11 89 1016.0
20260504211053 52 266 7.0 9.0 0.00 0.11 0.11 89 1016.2
20260504210031 52 266 7.0 9.0 0.00 0.11 0.11 90 1016.0
20260504205028 52 266 7.0 9.0 0.00 0.11 0.11 90 1015.9
20260504204045 52 266 7.0 9.0 0.00 0.11 0.11 91 1015.9
20260504203043 52 266 6.0 8.0 0.00 0.11 0.11 91 1016.0
20260504202020 52 266 9.0 9.0 0.00 0.11 0.11 91 1016.2
20260504201017 52 266 6.0 8.0 0.00 0.11 0.11 91 1015.9
20260504200045 52 266 8.0 11.0 0.00 0.11 0.11 91 1015.7
20260504195042 52 266 7.0 8.0 0.00 0.11 0.11 91 1015.6
20260504194039 52 267 8.0 13.0 0.00 0.11 0.11 92 1015.6
20260504193036 53 267 6.0 8.0 0.00 0.11 0.11 92 1015.6
20260504192034 53 267 8.0 10.0 0.00 0.11 0.11 92 1015.7
20260504191051 53 267 9.0 11.0 0.00 0.11 0.11 92 1015.4
20260504190049 53 267 11.0 13.0 0.00 0.11 0.11 92 1015.4
20260504185026 53 268 10.0 11.0 0.00 0.11 0.11 91 1015.2
20260504184043 53 271 8.0 10.0 0.00 0.11 0.11 91 1015.1
20260504183020 54 271 9.0 10.0 0.00 0.11 0.11 91 1015.4
20260504182018 54 273 9.0 13.0 0.00 0.11 0.11 91 1015.2
20260504181105 54 284 9.0 13.0 0.00 0.11 0.11 91 1015.1
20260504180042 54 289 8.0 9.0 0.00 0.11 0.11 91 1015.3
20260504175040 55 282 8.0 10.0 0.00 0.11 0.11 91 1015.2
20260504174037 55 322 10.0 14.0 0.00 0.11 0.11 90 1015.2
20260504173034 55 21 6.0 8.0 0.00 0.11 0.11 90 1015.3
20260504172031 55 37 10.0 13.0 0.00 0.11 0.11 90 1015.1
20260504171028 55 35 11.0 16.0 0.00 0.11 0.11 89 1015.1
20260504151045 57 40 11.0 14.0 0.00 0.11 0.11 90 1014.8
20260504141039 59 28 9.0 15.0 0.00 0.11 0.11 90 1015.1
20260504081030 56 48 0.0 1.0 0.00 0.12 0.00 99 1014.9
20260504045034 54 0.0 0.0 0.00 0.13 0.00 99 1013.3
20260504044031 54 0.0 0.0 0.00 0.13 0.00 99 1013.1
20260504043029 54 0.0 0.0 0.00 0.13 0.00 99 1013.1
20260504042026 54 0.0 0.0 0.00 0.13 0.00 99 1013.2
20260504041023 54 0.0 0.0 0.00 0.14 0.00 99 1013.1
20260504040021 54 266 2.0 3.0 0.00 0.16 0.00 99 1013.1
20260504035018 54 266 2.0 3.0 0.00 0.18 0.00 99 1013.1
20260504034016 54 0.0 0.0 0.00 0.18 0.00 99 1013.1
20260504033043 54 0.0 0.0 0.00 0.18 0.00 99 1013.1
20260504032121 54 0.0 0.0 0.00 0.18 0.00 99 1013.2
20260504031038 53 0.0 0.0 0.00 0.18 0.00 99 1013.4
20260504030055 53 0.0 0.0 0.00 0.18 0.00 99 1013.1
20260504025032 53 0.0 0.0 0.00 0.19 0.00 99 1013.1
20260504024050 53 0.0 0.0 0.00 0.19 0.00 99 1013.2
20260504023027 53 0.0 0.0 0.00 0.19 0.00 99 1013.1
20260504022024 53 0.0 0.0 0.00 0.19 0.00 99 1013.1
20260504021042 53 0.0 0.0 0.00 0.19 0.00 99 1013.1
20260504020019 53 0.0 0.0 0.00 0.19 0.00 99 1012.9
20260504015016 53 0.0 0.0 0.00 0.19 0.00 99 1013.0
20260504014044 52 0.0 0.0 0.00 0.19 0.00 99 1013.2
20260504013041 52 0.0 0.0 0.00 0.19 0.00 99 1013.1
20260504012038 53 0.0 0.0 0.00 0.19 0.00 99 1013.3
20260504011036 53 0.0 0.0 0.00 0.19 0.00 99 1013.3
20260504010033 53 0.0 0.0 0.00 0.19 0.00 99 1013.1
20260504005051 53 0.0 0.0 0.00 0.19 0.00 98 1013.2
20260504004027 53 0.0 0.0 0.00 0.19 0.00 98 1012.8
20260504003025 54 0.0 0.0 0.00 0.19 0.00 98 1012.8
20260504002022 54 0.0 0.0 0.00 0.19 0.00 98 1012.9
20260504001019 54 0.0 0.0 0.00 0.19 0.00 98 1012.9
20260504000037 54 0.0 0.0 0.00 0.19 0.00 98 1013.2
20260503235044 53 0.0 0.0 0.00 0.19 0.00 98 1013.0
20260503234041 54 0.0 0.0 0.00 0.19 0.00 98 1013.0
20260503233038 54 0.0 0.0 0.00 0.20 0.00 98 1013.0
20260503232035 53 0.0 0.0 0.00 0.23 0.00 97 1013.0